Tracking 29892 objects as of 21-Nov-2024
HD Live streaming from Space Station
objects crossing your sky now

CZ-6A DEB

Track CZ-6A DEB now!
10-day predictions


NORAD ID: 56629
Int'l Code: 2022-151AFD
Perigee: 677.4 km
Apogee: 807.3 km
Inclination: 98.7 °
Period: 99.5 minutes
Semi major axis: 7113 km
RCS: Unknown
Launch date: November 11, 2022
Source: People's Republic of China (PRC)
Launch site: Taiyaun Space Center, China (TSC)

Note: This is SATELLITE DEBRIS
Your satellite tracking list
Your tracking list is empty




NASA's NSSDC Master Catalog

Two Line Element Set (TLE):
1 56629U 22151AFD 24321.02527184  .00019812  00000-0  51610-2 0  9996
2 56629  98.6638 342.8245 0091302 293.9917  65.1736 14.47083441 82591
Source of the keplerian elements: AFSPC